Location: Goettingen
(51.5300°N, 9.9433°E)
Time: 20:40:13
(UTC+02:00)

ISS - Pass Details

Date: 23 September 2021
Orbit: 419 x 423 km, 51.6° (Epoch: 20 September)

Event Time Altitude Azimuth Distance (km) Brightness Sun altitude
Rises 20:09:29 0° 250° (WSW) 2,362 1.2 -9.1°
Reaches altitude 10° 20:11:35 10° 249° (WSW) 1,500 0.0 -9.4°
Maximum altitude 20:14:56 71° 165° (SSE) 448 -3.7 -9.9°
Enters shadow 20:17:41 14° 82° (E) 1,262 -1.9 -10.4°
